KROZINGEN Weather Reports


time (UTC)temp
C
wind
direction
speed
KPH
gust
KPH
rain 1hr
cm
rain 24hr
cm
rain mn
cm
humidity
%
barometer
mb
20260502230209 15 103 0.0 0.0 0.00 0.00 0.00 71 1016.5
20260502223211 16 101 3.2 0.0 0.00 0.00 0.00 68 1016.6
20260502220210 17 203 1.6 0.0 0.00 0.00 0.00 64 1016.5
20260502213210 17 131 1.6 0.0 0.00 0.00 0.00 66 1016.5
20260502210209 17 209 1.6 0.0 0.00 0.00 0.00 66 1016.4
20260502203209 17 207 1.6 0.0 0.00 0.00 0.00 64 1016.3
20260502200210 18 118 1.6 0.0 0.00 0.00 0.00 62 1016.1
20260502193215 19 110 1.6 0.0 0.00 0.00 0.00 60 1015.9
20260502190217 21 142 1.6 0.0 0.00 0.00 0.00 57 1015.7
20260502183210 23 120 4.8 0.0 0.00 0.00 0.00 51 1015.6
20260502180211 26 236 0.0 0.0 0.00 0.00 0.00 40 1015.4
20260502170209 27 261 1.6 0.0 0.00 0.00 0.00 36 1015.5
20260502163210 27 266 6.4 0.0 0.00 0.00 0.00 33 1015.8
20260502160213 27 245 8.0 0.0 0.00 0.00 0.00 34 1016.3
20260502150210 28 223 8.0 0.0 0.00 0.00 0.00 33 1016.9
20260502130210 26 254 12.9 0.0 0.00 0.00 0.00 39 1018.8
20260502123210 26 233 6.4 0.0 0.00 0.00 0.00 42 1019.3
20260502120210 25 243 8.0 0.0 0.00 0.00 0.00 41 1019.7
20260502113210 24 264 14.5 0.0 0.00 0.00 0.00 45 1020.2
20260502110210 24 138 14.5 0.0 0.00 0.00 0.00 45 1020.6
20260502103210 24 352 4.8 0.0 0.00 0.00 0.00 45 1021.0
20260502100210 23 292 14.5 0.0 0.00 0.00 0.00 47 1021.3
20260502090210 21 144 19.3 0.0 0.00 0.00 0.00 48 1022.2
20260502070213 15 124 1.6 0.0 0.00 0.00 0.00 57 1022.8
20260502063212 13 136 3.2 0.0 0.00 0.00 0.00 64 1022.8
20260502060210 11 314 1.6 0.0 0.00 0.00 0.00 70 1022.9
20260502053210 11 134 0.0 0.0 0.00 0.00 0.00 70 1022.8
20260502050211 10 132 1.6 0.0 0.00 0.00 0.00 75 1022.6
20260502043211 9 124 1.6 0.0 0.00 0.00 0.00 75 1022.5
20260502040212 9 132 1.6 0.0 0.00 0.00 0.00 73 1022.7
20260502033211 8 288 0.0 0.0 0.00 0.00 0.00 76 1022.9
20260502030211 8 288 0.0 0.0 0.00 0.00 0.00 74 1022.7
20260502023214 9 286 1.6 0.0 0.00 0.00 0.00 72 1022.7
20260502020212 9 281 0.0 0.0 0.00 0.00 0.00 71 1022.8
20260502013211 10 281 1.6 0.0 0.00 0.00 0.00 68 1022.8
20260502010211 10 240 0.0 0.0 0.00 0.00 0.00 67 1022.7
20260502003209 10 240 1.6 0.0 0.00 0.00 0.00 66 1022.9
20260502000211 10 139 1.6 0.0 0.00 0.00 0.00 68 1023.0
20260501233210 11 139 1.6 0.0 0.00 0.00 0.00 65 1023.0